This is the latest recevied weather packets stored in our database for station/object KD0RIH. If no packets are shown the sender has not sent any weather packets the latest 10 day(s).
| Time | Temp. | Humidity | Pressure | Rain* | Wind** | Luminosity | Snow |
|---|---|---|---|---|---|---|---|
| 1777118308 | 8.89° C | 85% | 1012.9 hPa | 0 mm | - | 30 W/m² | - |
| 1777118005 | 8.89° C | 86% | 1012.8 hPa | 0 mm | - | 26 W/m² | - |
| 1777117702 | 8.89° C | 87% | 1012.9 hPa | 0 mm | - | 22 W/m² | - |
| 1777117400 | 8.33° C | 87% | 1012.7 hPa | 0 mm | - | 17 W/m² | - |
| 1777117095 | 8.89° C | 86% | 1012.8 hPa | 0 mm | - | 12 W/m² | - |
| 1777116791 | 8.89° C | 86% | 1012.8 hPa | 0 mm | - | 9 W/m² | - |
| 1777116486 | 8.33° C | 87% | 1012.5 hPa | 0 mm | - | 6 W/m² | - |
| 1777116183 | 8.33° C | 87% | 1012.5 hPa | 0 mm | - | 4 W/m² | - |
| 1777115883 | 8.89° C | 86% | 1012.4 hPa | 0 mm | - | 2 W/m² | - |
| 1777115579 | 8.89° C | 86% | 1012.3 hPa | 0 mm | - | 1 W/m² | - |
| 1777115275 | 8.89° C | 86% | 1012.2 hPa | 0 mm | - | 0 W/m² | - |
| 1777114972 | 8.89° C | 85% | 1012.4 hPa | 0 mm | - | 0 W/m² | - |
| 1777114669 | 8.89° C | 85% | 1012.2 hPa | 0 mm | - | 0 W/m² | - |
| 1777114369 | 8.89° C | 85% | 1012.2 hPa | 0 mm | - | 0 W/m² | - |
| 1777114065 | 8.89° C | 85% | 1012.2 hPa | 0 mm | - | 0 W/m² | - |
| 1777113761 | 8.89° C | 85% | 1012.2 hPa | 0 mm | - | 0 W/m² | - |
| 1777113459 | 8.89° C | 85% | 1012.2 hPa | 0 mm | - | 0 W/m² | - |
| 1777113154 | 8.89° C | 85% | 1012.1 hPa | 0 mm | - | 0 W/m² | - |
| 1777112850 | 8.89° C | 86% | 1012.1 hPa | 0 mm | - | 0 W/m² | - |
| 1777112547 | 8.89° C | 86% | 1011.8 hPa | 0 mm | - | 0 W/m² | - |
| 1777112243 | 8.89° C | 86% | 1012 hPa | 0 mm | - | 0 W/m² | - |
| 1777111940 | 8.89° C | 86% | 1012 hPa | 0 mm | - | 0 W/m² | - |
| 1777111638 | 8.89° C | 86% | 1012.1 hPa | 0 mm | - | 0 W/m² | - |
| 1777111333 | 8.89° C | 86% | 1011.9 hPa | 0 mm | - | 0 W/m² | - |
| 1777111029 | 8.89° C | 86% | 1011.8 hPa | 0 mm | - | 0 W/m² | - |
* Rain latest hour (hover to see other rain measurements)
** Current wind speed in m/s (hover to see current wind gust speed)